Year,Month,Day,Hour,Minute,Value (Times are PST for temperature in C)
2021,06,24,00,00,17.70
2021,06,24,00,01,17.70
2021,06,24,00,02,17.70
2021,06,24,00,03,17.70
2021,06,24,00,04,17.70
2021,06,24,00,05,17.70
2021,06,24,00,06,17.70
2021,06,24,00,07,17.60
2021,06,24,00,08,17.60
2021,06,24,00,09,17.60
2021,06,24,00,10,17.60
2021,06,24,00,11,17.60
2021,06,24,00,12,17.50
2021,06,24,00,13,17.50
2021,06,24,00,14,17.50
2021,06,24,00,15,17.40
2021,06,24,00,16,17.40
2021,06,24,00,17,17.40
2021,06,24,00,18,17.40
2021,06,24,00,19,17.40
2021,06,24,00,20,17.40
2021,06,24,00,21,17.30
2021,06,24,00,22,17.30
2021,06,24,00,23,17.30
2021,06,24,00,24,17.30
2021,06,24,00,25,17.30
2021,06,24,00,26,17.30
2021,06,24,00,27,17.30
2021,06,24,00,28,17.20
2021,06,24,00,29,17.20
2021,06,24,00,30,17.20
2021,06,24,00,31,17.20
2021,06,24,00,32,17.20
2021,06,24,00,33,17.20
2021,06,24,00,34,17.20
2021,06,24,00,35,17.20
2021,06,24,00,36,17.10
2021,06,24,00,37,17.10
2021,06,24,00,38,17.10
2021,06,24,00,39,17.10
2021,06,24,00,40,17.10
2021,06,24,00,41,17.10
2021,06,24,00,42,17.00
2021,06,24,00,43,17.10
2021,06,24,00,44,17.00
2021,06,24,00,45,17.00
2021,06,24,00,46,17.00
2021,06,24,00,47,17.00
2021,06,24,00,48,16.90
2021,06,24,00,49,16.90
2021,06,24,00,50,16.90
2021,06,24,00,51,16.90
2021,06,24,00,52,16.90
2021,06,24,00,53,16.90
2021,06,24,00,54,16.90
2021,06,24,00,55,16.80
2021,06,24,00,56,16.80
2021,06,24,00,57,16.80
2021,06,24,00,58,16.80
2021,06,24,00,59,16.80
2021,06,24,01,00,16.70
2021,06,24,01,01,16.70
2021,06,24,01,02,16.70
2021,06,24,01,03,16.70
2021,06,24,01,04,16.70
2021,06,24,01,05,16.70
2021,06,24,01,06,16.70
2021,06,24,01,07,16.60
2021,06,24,01,08,16.70
2021,06,24,01,09,16.60
2021,06,24,01,10,16.60
2021,06,24,01,11,16.60
2021,06,24,01,12,16.60
2021,06,24,01,13,16.60
2021,06,24,01,14,16.60
2021,06,24,01,15,16.60
2021,06,24,01,16,16.60
2021,06,24,01,17,16.60
2021,06,24,01,18,16.60
2021,06,24,01,19,16.60
2021,06,24,01,20,16.50
2021,06,24,01,21,16.50
2021,06,24,01,22,16.50
2021,06,24,01,23,16.40
2021,06,24,01,24,16.40
2021,06,24,01,25,16.40
2021,06,24,01,26,16.40
2021,06,24,01,27,16.40
2021,06,24,01,28,16.40
2021,06,24,01,29,16.40
2021,06,24,01,30,16.40
2021,06,24,01,31,16.40
2021,06,24,01,32,16.40
2021,06,24,01,33,16.40
2021,06,24,01,34,16.40
2021,06,24,01,35,16.40
2021,06,24,01,36,16.40
2021,06,24,01,37,16.40
2021,06,24,01,38,16.40
2021,06,24,01,39,16.40
2021,06,24,01,40,16.40
2021,06,24,01,41,16.30
2021,06,24,01,42,16.30
2021,06,24,01,43,16.30
2021,06,24,01,44,16.30
2021,06,24,01,45,16.30
2021,06,24,01,46,16.30
2021,06,24,01,47,16.30
2021,06,24,01,48,16.30
2021,06,24,01,49,16.30
2021,06,24,01,50,16.30
2021,06,24,01,51,16.30
2021,06,24,01,52,16.20
2021,06,24,01,53,16.20
2021,06,24,01,54,16.20
2021,06,24,01,55,16.20
2021,06,24,01,56,16.20
2021,06,24,01,57,16.20
2021,06,24,01,58,16.10
2021,06,24,01,59,16.10
2021,06,24,02,00,16.10
2021,06,24,02,01,16.10
2021,06,24,02,02,16.10
2021,06,24,02,03,16.10
2021,06,24,02,04,16.10
2021,06,24,02,05,16.10
2021,06,24,02,06,16.00
2021,06,24,02,07,16.00
2021,06,24,02,08,16.00
2021,06,24,02,09,16.00
2021,06,24,02,10,16.00
2021,06,24,02,11,16.00
2021,06,24,02,12,16.00
2021,06,24,02,13,16.00
2021,06,24,02,14,16.00
2021,06,24,02,15,15.90
2021,06,24,02,16,15.90
2021,06,24,02,17,15.90
2021,06,24,02,18,15.90
2021,06,24,02,19,15.90
2021,06,24,02,20,15.90
2021,06,24,02,21,15.90
2021,06,24,02,22,15.90
2021,06,24,02,23,15.90
2021,06,24,02,24,15.90
2021,06,24,02,25,15.90
2021,06,24,02,26,15.90
2021,06,24,02,27,15.90
2021,06,24,02,28,15.90
2021,06,24,02,29,15.90
2021,06,24,02,30,15.90
2021,06,24,02,31,15.90
2021,06,24,02,32,15.90
2021,06,24,02,33,15.90
2021,06,24,02,34,15.90
2021,06,24,02,35,15.90
2021,06,24,02,36,15.90
2021,06,24,02,37,15.90
2021,06,24,02,38,15.90
2021,06,24,02,39,15.90
2021,06,24,02,40,15.90
2021,06,24,02,41,15.90
2021,06,24,02,42,15.90
2021,06,24,02,43,15.80
2021,06,24,02,44,15.80
2021,06,24,02,45,15.80
2021,06,24,02,46,15.80
2021,06,24,02,47,15.80
2021,06,24,02,48,15.80
2021,06,24,02,49,15.80
2021,06,24,02,50,15.80
2021,06,24,02,51,15.70
2021,06,24,02,52,15.70
2021,06,24,02,53,15.70
2021,06,24,02,54,15.70
2021,06,24,02,55,15.70
2021,06,24,02,56,15.70
2021,06,24,02,57,15.70
2021,06,24,02,58,15.70
2021,06,24,02,59,15.60
2021,06,24,03,00,15.60
2021,06,24,03,01,15.60
2021,06,24,03,02,15.60
2021,06,24,03,03,15.60
2021,06,24,03,04,15.60
2021,06,24,03,05,15.60
2021,06,24,03,06,15.60
2021,06,24,03,07,15.60
2021,06,24,03,08,15.60
2021,06,24,03,09,15.60
2021,06,24,03,10,15.60
2021,06,24,03,11,15.60
2021,06,24,03,12,15.60
2021,06,24,03,13,15.60
2021,06,24,03,14,15.70
2021,06,24,03,15,15.70
2021,06,24,03,16,15.60
2021,06,24,03,17,15.70
2021,06,24,03,18,15.60
2021,06,24,03,19,15.60
2021,06,24,03,20,15.60
2021,06,24,03,21,15.60
2021,06,24,03,22,15.60
2021,06,24,03,23,15.60
2021,06,24,03,24,15.60
2021,06,24,03,25,15.60
2021,06,24,03,26,15.60
2021,06,24,03,27,15.60
2021,06,24,03,28,15.60
2021,06,24,03,29,15.60
2021,06,24,03,30,15.50
2021,06,24,03,31,15.50
2021,06,24,03,32,15.50
2021,06,24,03,33,15.50
2021,06,24,03,34,15.40
2021,06,24,03,35,15.40
2021,06,24,03,36,15.40
2021,06,24,03,37,15.40
2021,06,24,03,38,15.40
2021,06,24,03,39,15.40
2021,06,24,03,40,15.40
2021,06,24,03,41,15.40
2021,06,24,03,42,15.40
2021,06,24,03,43,15.40
2021,06,24,03,44,15.40
2021,06,24,03,45,15.40
2021,06,24,03,46,15.40
2021,06,24,03,47,15.40
2021,06,24,03,48,15.40
2021,06,24,03,49,15.40
2021,06,24,03,50,15.40
2021,06,24,03,51,15.50
2021,06,24,03,52,15.50
2021,06,24,03,53,15.50
2021,06,24,03,54,15.50
2021,06,24,03,55,15.50
2021,06,24,03,56,15.50
2021,06,24,03,57,15.50
2021,06,24,03,58,15.50
2021,06,24,03,59,15.60
2021,06,24,04,00,15.60
2021,06,24,04,01,15.60
2021,06,24,04,02,15.60
2021,06,24,04,03,15.60
2021,06,24,04,04,15.70
2021,06,24,04,05,15.70
2021,06,24,04,06,15.70
2021,06,24,04,07,15.70
2021,06,24,04,08,15.70
2021,06,24,04,09,15.70
2021,06,24,04,10,15.70
2021,06,24,04,11,15.70
2021,06,24,04,12,15.60
2021,06,24,04,13,15.60
2021,06,24,04,14,15.60
2021,06,24,04,15,15.60
2021,06,24,04,16,15.60
2021,06,24,04,17,15.60
2021,06,24,04,18,15.60
2021,06,24,04,19,15.60
2021,06,24,04,20,15.60
2021,06,24,04,21,15.60
2021,06,24,04,22,15.60
2021,06,24,04,23,15.50
2021,06,24,04,24,15.50
2021,06,24,04,25,15.50
2021,06,24,04,26,15.50
2021,06,24,04,27,15.50
2021,06,24,04,28,15.40
2021,06,24,04,29,15.40
2021,06,24,04,30,15.40
2021,06,24,04,31,15.40
2021,06,24,04,32,15.30
2021,06,24,04,33,15.30
2021,06,24,04,34,15.30
2021,06,24,04,35,15.30
2021,06,24,04,36,15.30
2021,06,24,04,37,15.30
2021,06,24,04,38,15.30
2021,06,24,04,39,15.30
2021,06,24,04,40,15.20
2021,06,24,04,41,15.20
2021,06,24,04,42,15.20
2021,06,24,04,43,15.20
2021,06,24,04,44,15.20
2021,06,24,04,45,15.20
2021,06,24,04,46,15.20
2021,06,24,04,47,15.20
2021,06,24,04,48,15.20
2021,06,24,04,49,15.10
2021,06,24,04,50,15.10
2021,06,24,04,51,15.10
2021,06,24,04,52,15.10
2021,06,24,04,53,15.10
2021,06,24,04,54,15.10
2021,06,24,04,55,15.10
2021,06,24,04,56,15.00
2021,06,24,04,57,15.00
2021,06,24,04,58,15.00
2021,06,24,04,59,15.00
2021,06,24,05,00,15.00
2021,06,24,05,01,15.00
2021,06,24,05,02,15.00
2021,06,24,05,03,15.00
2021,06,24,05,04,14.90
2021,06,24,05,05,15.00
2021,06,24,05,06,14.90
2021,06,24,05,07,14.90
2021,06,24,05,08,14.90
2021,06,24,05,09,14.90
2021,06,24,05,10,14.90
2021,06,24,05,11,14.90
2021,06,24,05,12,14.90
2021,06,24,05,13,14.90
2021,06,24,05,14,14.90
2021,06,24,05,15,14.90
2021,06,24,05,16,14.90
2021,06,24,05,17,14.90
2021,06,24,05,18,14.90
2021,06,24,05,19,14.90
2021,06,24,05,20,14.90
2021,06,24,05,21,14.90
2021,06,24,05,22,14.80
2021,06,24,05,23,14.80
2021,06,24,05,24,14.80
2021,06,24,05,25,14.80
2021,06,24,05,26,14.80
2021,06,24,05,27,14.80
2021,06,24,05,28,14.80
2021,06,24,05,29,14.80
2021,06,24,05,30,14.80
2021,06,24,05,31,14.80
2021,06,24,05,32,14.70
2021,06,24,05,33,14.70
2021,06,24,05,34,14.80
2021,06,24,05,35,14.70
2021,06,24,05,36,14.70
2021,06,24,05,37,14.70
2021,06,24,05,38,14.70
2021,06,24,05,39,14.70
2021,06,24,05,40,14.70
2021,06,24,05,41,14.70
2021,06,24,05,42,14.70
2021,06,24,05,43,14.60
2021,06,24,05,44,14.60
2021,06,24,05,45,14.60
2021,06,24,05,46,14.60
2021,06,24,05,47,14.60
2021,06,24,05,48,14.60
2021,06,24,05,49,14.60
2021,06,24,05,50,14.60
2021,06,24,05,51,14.60
2021,06,24,05,52,14.60
2021,06,24,05,53,14.60
2021,06,24,05,54,14.50
2021,06,24,05,55,14.60
2021,06,24,05,56,14.60
2021,06,24,05,57,14.60
2021,06,24,05,58,14.60
2021,06,24,05,59,14.60
2021,06,24,06,00,14.60
2021,06,24,06,01,14.60
2021,06,24,06,02,14.60
2021,06,24,06,03,14.60
2021,06,24,06,04,14.60
2021,06,24,06,05,14.60
2021,06,24,06,06,14.60
2021,06,24,06,07,14.60
2021,06,24,06,08,14.60
2021,06,24,06,09,14.60
2021,06,24,06,10,14.60
2021,06,24,06,11,14.60
2021,06,24,06,12,14.60
2021,06,24,06,13,14.60
2021,06,24,06,14,14.60
2021,06,24,06,15,14.60
2021,06,24,06,16,14.60
2021,06,24,06,17,14.70
2021,06,24,06,18,14.70
2021,06,24,06,19,14.70
2021,06,24,06,20,14.70
2021,06,24,06,21,14.80
2021,06,24,06,22,14.80
2021,06,24,06,23,14.80
2021,06,24,06,24,14.80
2021,06,24,06,25,14.80
2021,06,24,06,26,14.80
2021,06,24,06,27,14.80
2021,06,24,06,28,14.90
2021,06,24,06,29,14.90
2021,06,24,06,30,14.90
2021,06,24,06,31,14.90
2021,06,24,06,32,15.00
2021,06,24,06,33,15.00
2021,06,24,06,34,15.00
2021,06,24,06,35,15.10
2021,06,24,06,36,15.10
2021,06,24,06,37,15.10
2021,06,24,06,38,15.10
2021,06,24,06,39,15.10
2021,06,24,06,40,15.20
2021,06,24,06,41,15.20
2021,06,24,06,42,15.20
2021,06,24,06,43,15.20
2021,06,24,06,44,15.30
2021,06,24,06,45,15.30
2021,06,24,06,46,15.40
2021,06,24,06,47,15.40
2021,06,24,06,48,15.50
2021,06,24,06,49,15.60
2021,06,24,06,50,15.60
2021,06,24,06,51,15.70
2021,06,24,06,52,15.80
2021,06,24,06,53,15.90
2021,06,24,06,54,16.00
2021,06,24,06,55,16.10
2021,06,24,06,56,16.10
2021,06,24,06,57,16.20
2021,06,24,06,58,16.30
2021,06,24,06,59,16.30
2021,06,24,07,00,16.40
2021,06,24,07,01,16.40
2021,06,24,07,02,16.40
2021,06,24,07,03,16.50
2021,06,24,07,04,16.50
2021,06,24,07,05,16.60
2021,06,24,07,06,16.70
2021,06,24,07,07,16.70
2021,06,24,07,08,16.80
2021,06,24,07,09,16.90
2021,06,24,07,10,17.00
2021,06,24,07,11,17.10
2021,06,24,07,12,17.20
2021,06,24,07,13,17.30
2021,06,24,07,14,17.40
2021,06,24,07,15,17.50
2021,06,24,07,16,17.60
2021,06,24,07,17,17.60
2021,06,24,07,18,17.60
2021,06,24,07,19,17.60
2021,06,24,07,20,17.60
2021,06,24,07,21,17.60
2021,06,24,07,22,17.60
2021,06,24,07,23,17.70
2021,06,24,07,24,17.70
2021,06,24,07,25,17.70
2021,06,24,07,26,17.70
2021,06,24,07,27,17.70
2021,06,24,07,28,17.70
2021,06,24,07,29,17.70
2021,06,24,07,30,17.80
2021,06,24,07,31,17.80
2021,06,24,07,32,17.90
2021,06,24,07,33,17.90
2021,06,24,07,34,17.90
2021,06,24,07,35,18.00
2021,06,24,07,36,18.00
2021,06,24,07,37,18.00
2021,06,24,07,38,18.10
2021,06,24,07,39,18.10
2021,06,24,07,40,18.00
2021,06,24,07,41,18.00
2021,06,24,07,42,18.00
2021,06,24,07,43,18.00
2021,06,24,07,44,18.00
2021,06,24,07,45,18.00
2021,06,24,07,46,18.10
2021,06,24,07,47,18.10
2021,06,24,07,48,18.10
2021,06,24,07,49,18.10
2021,06,24,07,50,18.10
2021,06,24,07,51,18.10
2021,06,24,07,52,18.20
2021,06,24,07,53,18.20
2021,06,24,07,54,18.20
2021,06,24,07,55,18.30
2021,06,24,07,56,18.30
2021,06,24,07,57,18.30
2021,06,24,07,58,18.30
2021,06,24,07,59,18.30
2021,06,24,08,00,18.30
2021,06,24,08,01,18.30
2021,06,24,08,02,18.30
2021,06,24,08,03,18.40
2021,06,24,08,04,18.40
2021,06,24,08,05,18.40
2021,06,24,08,06,18.50
2021,06,24,08,07,18.50
2021,06,24,08,08,18.50
2021,06,24,08,09,18.50
2021,06,24,08,10,18.50
2021,06,24,08,11,18.50
2021,06,24,08,12,18.50
2021,06,24,08,13,18.50
2021,06,24,08,14,18.50
2021,06,24,08,15,18.50
2021,06,24,08,16,18.50
2021,06,24,08,17,18.50
2021,06,24,08,18,18.50
2021,06,24,08,19,18.60
2021,06,24,08,20,18.70
2021,06,24,08,21,18.80
2021,06,24,08,22,18.90
2021,06,24,08,23,19.10
2021,06,24,08,24,19.20
2021,06,24,08,25,19.40
2021,06,24,08,26,19.50
2021,06,24,08,27,19.70
2021,06,24,08,28,19.80
2021,06,24,08,29,19.80
2021,06,24,08,30,20.00
2021,06,24,08,31,20.10
2021,06,24,08,32,20.10
2021,06,24,08,33,20.10
2021,06,24,08,34,20.20
2021,06,24,08,35,20.30
2021,06,24,08,36,20.20
2021,06,24,08,37,20.20
2021,06,24,08,38,20.20
2021,06,24,08,39,20.20
2021,06,24,08,40,20.30
2021,06,24,08,41,20.30
2021,06,24,08,42,20.40
2021,06,24,08,43,20.50
2021,06,24,08,44,20.60
2021,06,24,08,45,20.60
2021,06,24,08,46,20.70
2021,06,24,08,47,20.70
2021,06,24,08,48,20.70
2021,06,24,08,49,20.70
2021,06,24,08,50,20.60
2021,06,24,08,51,20.50
2021,06,24,08,52,20.40
2021,06,24,08,53,20.10
2021,06,24,08,54,19.90
2021,06,24,08,55,19.80
2021,06,24,08,56,19.70
2021,06,24,08,57,19.70
2021,06,24,08,58,19.70
2021,06,24,08,59,19.80
2021,06,24,09,00,20.00
2021,06,24,09,01,20.10
2021,06,24,09,02,20.10
2021,06,24,09,03,20.20
2021,06,24,09,04,20.20
2021,06,24,09,05,20.30
2021,06,24,09,06,20.40
2021,06,24,09,07,20.40
2021,06,24,09,08,20.40
2021,06,24,09,09,20.40
2021,06,24,09,10,20.40
2021,06,24,09,11,20.20
2021,06,24,09,12,20.10
2021,06,24,09,13,20.00
2021,06,24,09,14,19.90
2021,06,24,09,15,20.00
2021,06,24,09,16,20.20
2021,06,24,09,17,20.30
2021,06,24,09,18,20.40
2021,06,24,09,19,20.50
2021,06,24,09,20,20.50
2021,06,24,09,21,20.50
2021,06,24,09,22,20.60
2021,06,24,09,23,20.60
2021,06,24,09,24,20.60
2021,06,24,09,25,20.60
2021,06,24,09,26,20.70
2021,06,24,09,27,20.80
2021,06,24,09,28,20.90
2021,06,24,09,29,20.90
2021,06,24,09,30,20.90
2021,06,24,09,31,20.90
2021,06,24,09,32,21.00
2021,06,24,09,33,21.00
2021,06,24,09,34,21.10
2021,06,24,09,35,21.20
2021,06,24,09,36,21.20
2021,06,24,09,37,21.30
2021,06,24,09,38,21.30
2021,06,24,09,39,21.20
2021,06,24,09,40,21.00
2021,06,24,09,41,20.90
2021,06,24,09,42,20.90
2021,06,24,09,43,20.90
2021,06,24,09,44,21.00
2021,06,24,09,45,21.00
2021,06,24,09,46,21.10
2021,06,24,09,47,21.20
2021,06,24,09,48,21.40
2021,06,24,09,49,21.40
2021,06,24,09,50,21.40
2021,06,24,09,51,21.20
2021,06,24,09,52,21.10
2021,06,24,09,53,21.10
2021,06,24,09,54,21.00
2021,06,24,09,55,21.20
2021,06,24,09,56,21.30
2021,06,24,09,57,21.40
2021,06,24,09,58,21.50
2021,06,24,09,59,21.50
2021,06,24,10,00,21.60
2021,06,24,10,01,21.60
2021,06,24,10,02,21.60
2021,06,24,10,03,21.60
2021,06,24,10,04,21.60
2021,06,24,10,05,21.60
2021,06,24,10,06,21.60
2021,06,24,10,07,21.70
2021,06,24,10,08,21.90
2021,06,24,10,09,22.10
2021,06,24,10,10,22.20
2021,06,24,10,11,22.30
2021,06,24,10,12,22.40
2021,06,24,10,13,22.50
2021,06,24,10,14,22.40
2021,06,24,10,15,22.30
2021,06,24,10,16,22.10
2021,06,24,10,17,22.10
2021,06,24,10,18,22.10
2021,06,24,10,19,22.00
2021,06,24,10,20,21.90
2021,06,24,10,21,21.70
2021,06,24,10,22,21.70
2021,06,24,10,23,21.70
2021,06,24,10,24,21.70
2021,06,24,10,25,21.70
2021,06,24,10,26,21.70
2021,06,24,10,27,21.80
2021,06,24,10,28,21.90
2021,06,24,10,29,21.90
2021,06,24,10,30,22.00
2021,06,24,10,31,22.10
2021,06,24,10,32,22.20
2021,06,24,10,33,22.00
2021,06,24,10,34,21.90
2021,06,24,10,35,21.70
2021,06,24,10,36,21.50
2021,06,24,10,37,21.30
2021,06,24,10,38,21.20
2021,06,24,10,39,21.00
2021,06,24,10,40,20.90
2021,06,24,10,41,20.80
2021,06,24,10,42,20.90
2021,06,24,10,43,21.00
2021,06,24,10,44,20.90
2021,06,24,10,45,21.00
2021,06,24,10,46,21.00
2021,06,24,10,47,21.00
2021,06,24,10,48,21.10
2021,06,24,10,49,21.20
2021,06,24,10,50,21.30
2021,06,24,10,51,21.30
2021,06,24,10,52,21.20
2021,06,24,10,53,21.30
2021,06,24,10,54,21.30
2021,06,24,10,55,21.30
2021,06,24,10,56,21.40
2021,06,24,10,57,21.60
2021,06,24,10,58,21.60
2021,06,24,10,59,21.60
2021,06,24,11,00,21.60
2021,06,24,11,01,21.60
2021,06,24,11,02,21.60
2021,06,24,11,03,21.50
2021,06,24,11,04,21.40
2021,06,24,11,05,21.30
2021,06,24,11,06,21.20
2021,06,24,11,07,21.00
2021,06,24,11,08,21.10
2021,06,24,11,09,21.10
2021,06,24,11,10,21.30
2021,06,24,11,11,21.40
2021,06,24,11,12,21.40
2021,06,24,11,13,21.50
2021,06,24,11,14,21.50
2021,06,24,11,15,21.40
2021,06,24,11,16,21.40
2021,06,24,11,17,21.40
2021,06,24,11,18,21.50
2021,06,24,11,19,21.40
2021,06,24,11,20,21.40
2021,06,24,11,21,21.50
2021,06,24,11,22,21.80
2021,06,24,11,23,22.00
2021,06,24,11,24,21.90
2021,06,24,11,25,21.80
2021,06,24,11,26,21.80
2021,06,24,11,27,21.90
2021,06,24,11,28,22.00
2021,06,24,11,29,22.20
2021,06,24,11,30,22.20
2021,06,24,11,31,22.10
2021,06,24,11,32,22.00
2021,06,24,11,33,21.90
2021,06,24,11,34,21.90
2021,06,24,11,35,21.80
2021,06,24,11,36,21.80
2021,06,24,11,37,21.80
2021,06,24,11,38,21.90
2021,06,24,11,39,22.10
2021,06,24,11,40,22.30
2021,06,24,11,41,22.30
2021,06,24,11,42,22.40
2021,06,24,11,43,22.50
2021,06,24,11,44,22.70
2021,06,24,11,45,22.60
2021,06,24,11,46,22.40
2021,06,24,11,47,22.40
2021,06,24,11,48,22.40
2021,06,24,11,49,22.30
2021,06,24,11,50,22.20
2021,06,24,11,51,22.40
2021,06,24,11,52,22.50
2021,06,24,11,53,22.70
2021,06,24,11,54,22.80
2021,06,24,11,55,22.90
2021,06,24,11,56,22.90
2021,06,24,11,57,22.90
2021,06,24,11,58,22.90
2021,06,24,11,59,23.00
2021,06,24,12,00,23.10
2021,06,24,12,01,23.10
2021,06,24,12,02,23.20
2021,06,24,12,03,23.20
2021,06,24,12,04,23.00
2021,06,24,12,05,22.90
2021,06,24,12,06,22.70
2021,06,24,12,07,22.60
2021,06,24,12,08,22.70
2021,06,24,12,09,22.80
2021,06,24,12,10,22.90
2021,06,24,12,11,23.00
2021,06,24,12,12,23.00
2021,06,24,12,13,22.90
2021,06,24,12,14,22.80
2021,06,24,12,15,22.70
2021,06,24,12,16,22.50
2021,06,24,12,17,22.30
2021,06,24,12,18,22.30
2021,06,24,12,19,22.40
2021,06,24,12,20,22.40
2021,06,24,12,21,22.60
2021,06,24,12,22,22.80
2021,06,24,12,23,22.90
2021,06,24,12,24,22.90
2021,06,24,12,25,22.80
2021,06,24,12,26,22.70
2021,06,24,12,27,22.60
2021,06,24,12,28,22.70
2021,06,24,12,29,22.80
2021,06,24,12,30,23.00
2021,06,24,12,31,23.10
2021,06,24,12,32,23.20
2021,06,24,12,33,23.40
2021,06,24,12,34,23.40
2021,06,24,12,35,23.40
2021,06,24,12,36,23.40
2021,06,24,12,37,23.30
2021,06,24,12,38,23.30
2021,06,24,12,39,23.30
2021,06,24,12,40,23.30
2021,06,24,12,41,23.40
2021,06,24,12,42,23.50
2021,06,24,12,43,23.50
2021,06,24,12,44,23.50
2021,06,24,12,45,23.50
2021,06,24,12,46,23.40
2021,06,24,12,47,23.50
2021,06,24,12,48,23.50
2021,06,24,12,49,23.60
2021,06,24,12,50,23.60
2021,06,24,12,51,23.60
2021,06,24,12,52,23.60
2021,06,24,12,53,23.70
2021,06,24,12,54,23.80
2021,06,24,12,55,23.90
2021,06,24,12,56,23.80
2021,06,24,12,57,23.80
2021,06,24,12,58,23.80
2021,06,24,12,59,23.80
2021,06,24,13,00,23.60
2021,06,24,13,01,23.50
2021,06,24,13,02,23.40
2021,06,24,13,03,23.30
2021,06,24,13,04,23.20
2021,06,24,13,05,23.20
2021,06,24,13,06,23.20
2021,06,24,13,07,23.20
2021,06,24,13,08,23.30
2021,06,24,13,09,23.40
2021,06,24,13,10,23.60
2021,06,24,13,11,23.70
2021,06,24,13,12,23.70
2021,06,24,13,13,23.70
2021,06,24,13,14,23.70
2021,06,24,13,15,23.80
2021,06,24,13,16,23.90
2021,06,24,13,17,24.00
2021,06,24,13,18,24.00
2021,06,24,13,19,24.10
2021,06,24,13,20,24.20
2021,06,24,13,21,24.20
2021,06,24,13,22,24.20
2021,06,24,13,23,24.10
2021,06,24,13,24,24.10
2021,06,24,13,25,24.10
2021,06,24,13,26,24.20
2021,06,24,13,27,24.30
2021,06,24,13,28,24.60
2021,06,24,13,29,24.80
2021,06,24,13,30,24.80
2021,06,24,13,31,24.80
2021,06,24,13,32,24.70
2021,06,24,13,33,24.60
2021,06,24,13,34,24.70
2021,06,24,13,35,24.90
2021,06,24,13,36,25.10
2021,06,24,13,37,25.10
2021,06,24,13,38,25.10
2021,06,24,13,39,25.20
2021,06,24,13,40,25.20
2021,06,24,13,41,25.10
2021,06,24,13,42,25.00
2021,06,24,13,43,25.10
2021,06,24,13,44,25.20
2021,06,24,13,45,25.30
2021,06,24,13,46,25.40
2021,06,24,13,47,25.40
2021,06,24,13,48,25.50
2021,06,24,13,49,25.60
2021,06,24,13,50,25.50
2021,06,24,13,51,25.40
2021,06,24,13,52,25.40
2021,06,24,13,53,25.40
2021,06,24,13,54,25.40
2021,06,24,13,55,25.40
2021,06,24,13,56,25.40
2021,06,24,13,57,25.40
2021,06,24,13,58,25.50
2021,06,24,13,59,25.60
2021,06,24,14,00,25.70
2021,06,24,14,01,25.90
2021,06,24,14,02,26.10
2021,06,24,14,03,26.10
2021,06,24,14,04,26.10
2021,06,24,14,05,26.30
2021,06,24,14,06,26.40
2021,06,24,14,07,26.60
2021,06,24,14,08,26.60
2021,06,24,14,09,26.60
2021,06,24,14,10,26.60
2021,06,24,14,11,26.40
2021,06,24,14,12,26.40
2021,06,24,14,13,26.40
2021,06,24,14,14,26.30
2021,06,24,14,15,26.20
2021,06,24,14,16,26.10
2021,06,24,14,17,26.00
2021,06,24,14,18,26.00
2021,06,24,14,19,26.00
2021,06,24,14,20,26.20
2021,06,24,14,21,26.10
2021,06,24,14,22,25.90
2021,06,24,14,23,25.70
2021,06,24,14,24,25.70
2021,06,24,14,25,25.50
2021,06,24,14,26,25.30
2021,06,24,14,27,25.30
2021,06,24,14,28,25.30
2021,06,24,14,29,25.30
2021,06,24,14,30,25.30
2021,06,24,14,31,25.40
2021,06,24,14,32,25.50
2021,06,24,14,33,25.70
2021,06,24,14,34,25.80
2021,06,24,14,35,25.80
2021,06,24,14,36,25.90
2021,06,24,14,37,25.90
2021,06,24,14,38,26.00
2021,06,24,14,39,26.10
2021,06,24,14,40,26.20
2021,06,24,14,41,26.20
2021,06,24,14,42,26.20
2021,06,24,14,43,26.10
2021,06,24,14,44,25.90
2021,06,24,14,45,25.80
2021,06,24,14,46,25.80
2021,06,24,14,47,25.70
2021,06,24,14,48,25.60
2021,06,24,14,49,25.50
2021,06,24,14,50,25.50
2021,06,24,14,51,25.50
2021,06,24,14,52,25.50
2021,06,24,14,53,25.60
2021,06,24,14,54,25.80
2021,06,24,14,55,26.00
2021,06,24,14,56,26.20
2021,06,24,14,57,26.30
2021,06,24,14,58,26.30
2021,06,24,14,59,26.30
2021,06,24,15,00,26.30
2021,06,24,15,01,26.30
2021,06,24,15,02,26.30
2021,06,24,15,03,26.40
2021,06,24,15,04,26.20
2021,06,24,15,05,26.10
2021,06,24,15,06,26.20
2021,06,24,15,07,26.30
2021,06,24,15,08,26.30
2021,06,24,15,09,26.10
2021,06,24,15,10,25.80
2021,06,24,15,11,25.70
2021,06,24,15,12,25.60
2021,06,24,15,13,25.60
2021,06,24,15,14,25.50
2021,06,24,15,15,25.40
2021,06,24,15,16,25.50
2021,06,24,15,17,25.60
2021,06,24,15,18,25.60
2021,06,24,15,19,25.40
2021,06,24,15,20,25.30
2021,06,24,15,21,25.20
2021,06,24,15,22,25.20
2021,06,24,15,23,25.30
2021,06,24,15,24,25.30
2021,06,24,15,25,25.40
2021,06,24,15,26,25.40
2021,06,24,15,27,25.40
2021,06,24,15,28,25.50
2021,06,24,15,29,25.70
2021,06,24,15,30,25.70
2021,06,24,15,31,25.70
2021,06,24,15,32,25.80
2021,06,24,15,33,25.90
2021,06,24,15,34,26.00
2021,06,24,15,35,26.20
2021,06,24,15,36,26.40
2021,06,24,15,37,26.50
2021,06,24,15,38,26.50
2021,06,24,15,39,26.60
2021,06,24,15,40,26.60
2021,06,24,15,41,26.60
2021,06,24,15,42,26.50
2021,06,24,15,43,26.40
2021,06,24,15,44,26.40
2021,06,24,15,45,26.40
2021,06,24,15,46,26.50
2021,06,24,15,47,26.60
2021,06,24,15,48,26.50
2021,06,24,15,49,26.40
2021,06,24,15,50,26.40
2021,06,24,15,51,26.40
2021,06,24,15,52,26.50
2021,06,24,15,53,26.40
2021,06,24,15,54,26.30
2021,06,24,15,55,26.30
2021,06,24,15,56,26.30
2021,06,24,15,57,26.30
2021,06,24,15,58,26.50
2021,06,24,15,59,26.60
2021,06,24,16,00,26.70
2021,06,24,16,01,26.80
2021,06,24,16,02,26.80
2021,06,24,16,03,26.70
2021,06,24,16,04,26.50
2021,06,24,16,05,26.50
2021,06,24,16,06,26.50
2021,06,24,16,07,26.70
2021,06,24,16,08,26.90
2021,06,24,16,09,26.90
2021,06,24,16,10,26.90
2021,06,24,16,11,26.90
2021,06,24,16,12,26.90
2021,06,24,16,13,26.90
2021,06,24,16,14,26.90
2021,06,24,16,15,26.80
2021,06,24,16,16,26.80
2021,06,24,16,17,26.60
2021,06,24,16,18,26.50
2021,06,24,16,19,26.40
2021,06,24,16,20,26.40
2021,06,24,16,21,26.40
2021,06,24,16,22,26.40
2021,06,24,16,23,26.50
2021,06,24,16,24,26.60
2021,06,24,16,25,26.80
2021,06,24,16,26,26.80
2021,06,24,16,27,26.80
2021,06,24,16,28,26.70
2021,06,24,16,29,26.80
2021,06,24,16,30,27.00
2021,06,24,16,31,27.10
2021,06,24,16,32,27.30
2021,06,24,16,33,27.40
2021,06,24,16,34,27.50
2021,06,24,16,35,27.60
2021,06,24,16,36,27.70
2021,06,24,16,37,27.70
2021,06,24,16,38,27.80
2021,06,24,16,39,27.80
2021,06,24,16,40,27.80
2021,06,24,16,41,27.60
2021,06,24,16,42,27.30
2021,06,24,16,43,27.10
2021,06,24,16,44,26.90
2021,06,24,16,45,26.70
2021,06,24,16,46,26.60
2021,06,24,16,47,26.60
2021,06,24,16,48,26.60
2021,06,24,16,49,26.50
2021,06,24,16,50,26.50
2021,06,24,16,51,26.60
2021,06,24,16,52,26.60
2021,06,24,16,53,26.60
2021,06,24,16,54,26.70
2021,06,24,16,55,26.70
2021,06,24,16,56,26.90
2021,06,24,16,57,26.90
2021,06,24,16,58,26.90
2021,06,24,16,59,27.00
2021,06,24,17,00,27.10
2021,06,24,17,01,27.20
2021,06,24,17,02,27.30
2021,06,24,17,03,27.40
2021,06,24,17,04,27.40
2021,06,24,17,05,27.40
2021,06,24,17,06,27.40
2021,06,24,17,07,27.20
2021,06,24,17,08,27.00
2021,06,24,17,09,26.90
2021,06,24,17,10,26.80
2021,06,24,17,11,26.90
2021,06,24,17,12,26.90
2021,06,24,17,13,26.90
2021,06,24,17,14,26.90
2021,06,24,17,15,26.90
2021,06,24,17,16,26.90
2021,06,24,17,17,26.90
2021,06,24,17,18,26.80
2021,06,24,17,19,26.80